TimeMST,TemperatureF,Dew PointF,Humidity,Sea Level PressureIn,VisibilityMPH,Wind Direction,Wind SpeedMPH,Gust SpeedMPH,PrecipitationIn,Events,Conditions,WindDirDegrees,DateUTC
12:15 AM,32.0,17.6,55,29.94,10.0,NNE,4.6,-,N/A,,Clear,30,2013-02-22 07:15:00
12:35 AM,30.2,15.8,55,29.94,10.0,East,6.9,-,N/A,,Clear,80,2013-02-22 07:35:00
12:55 AM,30.2,17.6,60,29.93,10.0,East,8.1,-,N/A,,Clear,80,2013-02-22 07:55:00
1:15 AM,32.0,15.8,51,29.93,10.0,East,10.4,-,N/A,,Clear,80,2013-02-22 08:15:00
1:35 AM,35.6,14.0,41,29.92,10.0,ENE,5.8,-,N/A,,Clear,70,2013-02-22 08:35:00
1:55 AM,32.0,14.0,48,29.92,10.0,SE,6.9,-,N/A,,Clear,140,2013-02-22 08:55:00
2:15 AM,32.0,12.2,44,29.91,10.0,SSE,8.1,-,N/A,,Clear,150,2013-02-22 09:15:00
2:35 AM,33.8,14.0,44,29.92,10.0,Calm,Calm,-,N/A,,Clear,0,2013-02-22 09:35:00
2:55 AM,30.2,14.0,51,29.92,10.0,West,6.9,-,N/A,,Clear,280,2013-02-22 09:55:00
3:15 AM,26.6,15.8,64,29.92,10.0,West,4.6,-,N/A,,Clear,270,2013-02-22 10:15:00
3:35 AM,24.8,14.0,64,29.92,10.0,Calm,Calm,-,N/A,,Clear,0,2013-02-22 10:35:00
3:55 AM,24.8,14.0,64,29.93,10.0,NNE,5.8,-,N/A,,Clear,20,2013-02-22 10:55:00
4:15 AM,26.6,14.0,59,29.93,10.0,NNE,4.6,-,N/A,,Clear,30,2013-02-22 11:15:00
4:35 AM,28.4,14.0,55,29.94,10.0,NNE,3.5,-,N/A,,Clear,20,2013-02-22 11:35:00
4:55 AM,24.8,12.2,59,29.94,10.0,East,6.9,-,N/A,,Clear,90,2013-02-22 11:55:00
5:15 AM,24.8,12.2,59,29.94,10.0,ENE,4.6,-,N/A,,Clear,70,2013-02-22 12:15:00
5:55 AM,26.6,14.0,59,29.96,10.0,SE,3.5,-,N/A,,Clear,140,2013-02-22 12:55:00
6:15 AM,26.6,14.0,59,29.96,10.0,West,4.6,-,N/A,,Clear,270,2013-02-22 13:15:00
6:35 AM,26.6,14.0,59,29.98,10.0,WSW,5.8,-,N/A,,Clear,240,2013-02-22 13:35:00
6:55 AM,24.8,14.0,64,29.99,10.0,SE,3.5,-,N/A,,Clear,140,2013-02-22 13:55:00
7:15 AM,24.8,14.0,64,30.00,10.0,SE,4.6,-,N/A,,Clear,140,2013-02-22 14:15:00
7:35 AM,30.2,17.6,60,30.00,10.0,SSE,4.6,-,N/A,,Clear,150,2013-02-22 14:35:00
7:55 AM,32.0,17.6,55,30.01,10.0,South,9.2,-,N/A,,Clear,180,2013-02-22 14:55:00
8:15 AM,35.6,19.4,52,30.01,10.0,South,11.5,-,N/A,,Clear,180,2013-02-22 15:15:00
8:35 AM,39.2,19.4,45,30.02,10.0,South,11.5,-,N/A,,Clear,170,2013-02-22 15:35:00
8:55 AM,39.2,19.4,45,30.04,10.0,South,10.4,-,N/A,,Clear,190,2013-02-22 15:55:00
9:15 AM,41.0,19.4,42,30.04,10.0,South,9.2,-,N/A,,Clear,170,2013-02-22 16:15:00
9:35 AM,41.0,19.4,42,30.04,10.0,South,9.2,-,N/A,,Clear,180,2013-02-22 16:35:00
9:55 AM,44.6,19.4,37,30.04,8.0,SSE,5.8,-,N/A,,Clear,160,2013-02-22 16:55:00
10:15 AM,44.6,19.4,37,30.05,10.0,SW,4.6,-,N/A,,Clear,220,2013-02-22 17:15:00
10:35 AM,44.6,19.4,37,30.04,8.0,South,3.5,-,N/A,,Clear,190,2013-02-22 17:35:00
10:55 AM,46.4,19.4,34,30.04,10.0,South,6.9,-,N/A,,Clear,180,2013-02-22 17:55:00
11:15 AM,46.4,17.6,32,30.04,10.0,SW,5.8,-,N/A,,Clear,230,2013-02-22 18:15:00
11:35 AM,48.2,17.6,30,30.03,10.0,WSW,10.4,-,N/A,,Clear,240,2013-02-22 18:35:00
11:55 AM,46.4,15.8,29,30.03,10.0,South,4.6,-,N/A,,Clear,190,2013-02-22 18:55:00
12:15 PM,48.2,14.0,25,30.01,10.0,West,9.2,18.4,N/A,,Clear,270,2013-02-22 19:15:00
12:35 PM,48.2,14.0,25,30.00,10.0,SW,6.9,-,N/A,,Clear,220,2013-02-22 19:35:00
12:55 PM,48.2,14.0,25,29.98,10.0,SSE,6.9,-,N/A,,Clear,150,2013-02-22 19:55:00
1:15 PM,50.0,14.0,24,29.98,10.0,WSW,9.2,-,N/A,,Clear,240,2013-02-22 20:15:00
1:35 PM,50.0,14.0,24,29.96,10.0,SSW,10.4,-,N/A,,Clear,210,2013-02-22 20:35:00
1:55 PM,50.0,14.0,24,29.96,10.0,WNW,3.5,-,N/A,,Clear,300,2013-02-22 20:55:00
2:15 PM,50.0,12.2,22,29.95,10.0,West,6.9,-,N/A,,Clear,270,2013-02-22 21:15:00
2:35 PM,51.8,14.0,22,29.94,10.0,Calm,Calm,-,N/A,,Clear,0,2013-02-22 21:35:00
2:55 PM,51.8,14.0,22,29.94,10.0,SSE,6.9,16.1,N/A,,Clear,160,2013-02-22 21:55:00
3:15 PM,53.6,12.2,19,29.94,10.0,WSW,9.2,-,N/A,,Scattered Clouds,240,2013-02-22 22:15:00
3:35 PM,53.6,12.2,19,29.94,10.0,WSW,8.1,-,N/A,,Partly Cloudy,240,2013-02-22 22:35:00
3:55 PM,51.8,12.2,21,29.94,10.0,SW,5.8,-,N/A,,Clear,230,2013-02-22 22:55:00
4:15 PM,51.8,12.2,21,29.93,10.0,East,3.5,-,N/A,,Clear,90,2013-02-22 23:15:00
4:35 PM,51.8,14.0,22,29.92,10.0,SW,8.1,-,N/A,,Clear,220,2013-02-22 23:35:00
4:55 PM,53.6,12.2,19,29.93,10.0,SW,11.5,19.6,N/A,,Clear,220,2013-02-22 23:55:00
5:15 PM,53.6,14.0,21,29.93,10.0,SW,12.7,16.1,N/A,,Scattered Clouds,220,2013-02-23 00:15:00
5:35 PM,50.0,14.0,24,29.93,10.0,SSW,10.4,-,N/A,,Scattered Clouds,200,2013-02-23 00:35:00
5:55 PM,50.0,12.2,22,29.94,10.0,SW,9.2,-,N/A,,Clear,220,2013-02-23 00:55:00
6:15 PM,46.4,14.0,27,29.94,10.0,South,12.7,-,N/A,,Clear,190,2013-02-23 01:15:00
6:35 PM,46.4,15.8,29,29.96,10.0,South,11.5,-,N/A,,Clear,180,2013-02-23 01:35:00
6:55 PM,44.6,15.8,31,29.97,10.0,South,10.4,-,N/A,,Clear,170,2013-02-23 01:55:00
7:15 PM,42.8,15.8,34,29.97,10.0,South,10.4,-,N/A,,Clear,170,2013-02-23 02:15:00
7:35 PM,44.6,15.8,31,29.97,10.0,South,11.5,-,N/A,,Clear,170,2013-02-23 02:35:00
7:55 PM,44.6,15.8,31,29.98,10.0,SSW,9.2,-,N/A,,Clear,200,2013-02-23 02:55:00
8:15 PM,41.0,15.8,36,29.99,10.0,South,8.1,-,N/A,,Clear,190,2013-02-23 03:15:00
8:35 PM,41.0,15.8,36,29.99,10.0,SSW,9.2,-,N/A,,Partly Cloudy,210,2013-02-23 03:35:00
8:55 PM,41.0,15.8,36,30.00,10.0,SSW,12.7,17.3,N/A,,Clear,210,2013-02-23 03:55:00
9:15 PM,44.6,15.8,31,30.01,10.0,SW,5.8,-,N/A,,Clear,220,2013-02-23 04:15:00
9:55 PM,42.8,15.8,34,30.03,10.0,West,6.9,-,N/A,,Mostly Cloudy,260,2013-02-23 04:55:00
10:15 PM,44.6,15.8,31,30.05,10.0,WNW,6.9,-,N/A,,Overcast,300,2013-02-23 05:15:00
10:35 PM,41.0,15.8,36,30.05,10.0,NW,10.4,-,N/A,,Mostly Cloudy,320,2013-02-23 05:35:00
10:55 PM,39.2,14.0,36,30.05,10.0,North,9.2,-,N/A,,Partly Cloudy,350,2013-02-23 05:55:00
11:15 PM,39.2,14.0,36,30.06,10.0,North,10.4,-,N/A,,Clear,360,2013-02-23 06:15:00
11:35 PM,39.2,12.2,33,30.06,10.0,North,10.4,-,N/A,,Scattered Clouds,10,2013-02-23 06:35:00
11:55 PM,39.2,12.2,33,30.06,10.0,North,12.7,-,N/A,,Scattered Clouds,360,2013-02-23 06:55:00